Showing default

BISONSAT, 40968

Orbit data source: Space-Track

BISONSAT, 40968 is a payload satellite owned by Salish Kootenai (US) in LEO that was launched on Thu, 08 Oct 2015 UTC via an ATLAS V 401 launch vehicle from the Air Force Western Test Range (AFWTR). Payload-class satellites include a variety of spacecraft equipped with specific instruments for various scientific and technological missions. These include communications satellites like Starlink; space stations such as the ISS; scientific satellites like the Hubble; Earth observation satellites from companies like Planet Labs, Umbra, and HawkEye 360; GPS; miniature CubeSats for education and research; and military/defense satellites.

Loading next visibility...
Identifier
40968, 2015-058E
Orbit
LEO
Country
Flag of USUS
Related business
Manufacturer
Salish Kootenai
Mission
Operational Amateur Technology
Bus & Motor
CUBESAT 1U, Unknown motor
Mass
1 kg wet, 1 kg dry
Launch date (UTC)
2015-10-08 (10 years ago)
Launch vehicle
ATLAS V 401
Launch site
Air Force Western Test Range (AFWTR)
Object type
Payload
Rocket body
Debris
Shape & HBR
Box, 0.1 m
Radar Cross Section
0.015 m², Small (<0.1 m²)

Expand to show TLE details & history
Last TLE update: 14 hours ago

TLE from 14 hours ago
0 BISONSAT
1 40968U 15058E   25260.73813393  .00007207  00000-0  59462-3 0  9993
2 40968  64.7772  30.3153 0135562 160.4841 200.1536 14.92779640 75944
Epoch: 2025-09-17T17:42Z
TLE epoch observation values (Epoch: 2025-09-17T17:42:54.771Z)
Latitude
0.00003°
Longitude
127.67732°
Altitude
680.11 km
Speed
7.469 km/s
True Right ascension
02h 01m 15s
True Declination
0° 00' 00"
Sunlit
Object was in full shadow at epoch
Visualization orbit readout
Latitude
Unknown
Longitude
Unknown
Altitude
Unknown
Speed
Unknown
Apparent Right ascension
Unknown
Apparent Declination
Unknown
Sunlit
N/A
Visualization observer readout
Local Sidereal Time
00:45:13
Azimuth
Unknown
Elevation
Unknown
Doppler factor
Unknown
Orbital elements
Apogee altitude
682.271 km
Perigee altitude
493.406 km
Semi-major axis
6,965.975 km
Eccentricity
0.01356
Inclination
64.7772°
RAAN
30.3153°
Arg. of periapsis
160.4841°
True anomaly
199.62678°
Mean anomaly
200.1536°
Eccentric anomaly
199.88936°
Mean motion
3.73311 °/min
Orbital period
96.43 mins
BSTAR
0.00059462
Loading maneuver chart data...
Computing Atmospheric mass density...
Loading historical data...
Loading historical data...
Loading historical data...
Loading historical data...
Loading historical data...
Loading historical data...
Loading historical data...

Documentation

Showing up to 5 results
|